Date String (YYYY-MM-DD hh:mm:ss) UTC,Instrument flags,absolute air pressure of the measurement (hPa),sample flow rate (lpm),inlet stack bypass flow (lpm),air temperature of the measurement (°C),ambient temperature measured by the external sensor (°C),aerosol sample conditioner tube jacket temperature (°C),OPC LED temperature (°C),internal box temperature (°C),relative humidity of the measurement (%),span deviation,mass concentration of particles derived from Lorenz-Mie calculation of OPC scattering (μg/m³),mass concentration of particles derived from Lorenz-Mie calculation of OPC scattering (μg/m³),mass concentration of particles derived from Lorenz-Mie calculation of OPC scattering (μg/m³)
DateTimeUTC,F1_M11,P_M11,Q1_M11,Q2_M11,T1_M11,T2_M11,T3_M11,T4_M11,T5_M11,U1_M11,ZSPAN_M11,X2_M11,X0_M11,X1_M11
2023-10-11 04:00:00,SystemResetWarning,0820.2,5.01,000.00,028.4,024.5,000.0,036.8,029.9,11.8,0000.0,0004.86,0009.56,0004.48
2023-10-11 04:01:00,SystemResetWarning,0820.3,5.00,000.00,028.3,024.8,000.0,036.8,029.8,11.8,0000.0,0004.77,0009.23,0004.42
2023-10-11 04:02:00,SystemResetWarning,0820.2,5.00,000.00,028.3,025.2,000.0,036.8,029.8,11.8,0000.0,0004.72,0008.91,0004.37
2023-10-11 04:03:00,SystemResetWarning,0820.2,4.98,000.00,028.2,025.6,000.0,036.8,029.9,11.9,0000.0,0004.67,0008.89,0004.34
2023-10-11 04:04:00,SystemResetWarning,0820.1,5.00,000.00,028.2,025.9,000.0,036.8,029.9,11.9,0000.0,0004.64,0008.86,0004.32
2023-10-11 04:05:00,SystemResetWarning,0820.0,5.02,000.00,028.2,026.1,000.0,036.8,030.0,11.9,0000.0,0004.65,0008.89,0004.31
2023-10-11 04:06:00,SystemResetWarning,0820.1,5.00,000.00,028.2,026.4,000.0,036.8,030.0,11.9,0000.0,0004.62,0008.25,0004.30
2023-10-11 04:07:00,SystemResetWarning,0820.0,5.00,000.00,028.3,026.5,000.0,036.8,030.0,11.8,0000.0,0004.56,0008.05,0004.28
2023-10-11 04:08:00,SystemResetWarning,0820.1,5.00,000.00,028.3,026.7,000.0,036.8,030.1,11.7,0000.0,0004.52,0007.98,0004.25
2023-10-11 04:09:00,SystemResetWarning,0819.8,4.99,000.00,028.3,026.8,000.0,036.8,030.1,11.7,0000.0,0004.46,0007.91,0004.22
2023-10-11 04:10:00,SystemResetWarning,0819.6,4.99,000.00,028.3,026.9,000.0,036.8,030.1,11.7,0000.0,0004.42,0007.95,0004.18
2023-10-11 04:11:00,SystemResetWarning,0819.7,5.00,000.00,028.4,027.0,000.0,036.8,030.2,11.7,0000.0,0004.45,0007.48,0004.16
2023-10-11 04:12:00,SystemResetWarning,0819.8,5.01,000.00,028.4,027.1,000.0,036.9,030.2,11.7,0000.0,0004.43,0007.41,0004.13
2023-10-11 04:13:00,SystemResetWarning,0819.6,5.01,000.00,028.4,027.2,000.0,036.9,030.2,11.6,0000.0,0004.37,0007.91,0004.07
2023-10-11 04:14:00,SystemResetWarning,0819.7,5.00,000.00,028.4,027.2,000.0,036.9,030.2,11.6,0000.0,0004.30,0007.78,0004.02
2023-10-11 04:15:00,SystemResetWarning,0819.6,5.00,000.00,028.5,027.3,000.0,036.9,030.2,11.5,0000.0,0004.24,0007.68,0003.96
2023-10-11 04:16:00,SystemResetWarning,0819.6,4.99,000.00,028.5,027.3,000.0,036.9,030.3,11.5,0000.0,0004.18,0007.64,0003.91
2023-10-11 04:17:00,SystemResetWarning,0819.6,5.00,000.00,028.5,027.3,000.0,036.9,030.3,11.5,0000.0,0004.12,0007.54,0003.87
2023-10-11 04:18:00,SystemResetWarning,0819.7,4.99,000.00,028.6,027.4,000.0,037.0,030.3,11.5,0000.0,0004.08,0007.60,0003.83
2023-10-11 04:19:00,SystemResetWarning,0819.5,4.99,000.00,028.6,027.4,000.0,037.0,030.3,11.5,0000.0,0004.08,0007.81,0003.81
2023-10-11 04:20:00,SystemResetWarning,0819.6,5.01,000.00,028.6,027.4,000.0,037.0,030.4,11.5,0000.0,0004.09,0007.87,0003.79
2023-10-11 04:21:00,SystemResetWarning,0819.5,5.01,000.00,028.6,027.5,000.0,037.0,030.4,11.5,0000.0,0004.07,0007.77,0003.77
2023-10-11 04:22:00,SystemResetWarning,0819.6,4.99,000.00,028.7,026.7,000.0,037.0,030.4,11.4,0000.0,0004.00,0007.58,0003.73
2023-10-11 04:23:00,SystemResetWarning,0819.5,5.01,000.00,028.6,024.9,000.0,036.9,030.2,11.4,0000.0,0003.97,0007.20,0003.69
2023-10-11 04:24:00,SystemResetWarning,0819.5,5.01,000.00,028.5,024.5,000.0,036.9,030.0,11.5,0000.0,0003.93,0006.30,0003.67
2023-10-11 04:25:00,SystemResetWarning,0819.5,5.00,000.00,028.4,024.6,000.0,036.9,029.8,11.5,0000.0,0003.92,0006.25,0003.65
2023-10-11 04:26:00,SystemResetWarning,0819.4,5.00,000.00,028.3,025.0,000.0,036.9,029.8,11.6,0000.0,0003.89,0006.27,0003.63
2023-10-11 04:27:00,SystemResetWarning,0819.4,5.00,000.00,028.3,025.3,000.0,036.9,029.8,11.6,0000.0,0003.86,0006.10,0003.61
2023-10-11 04:28:00,SystemResetWarning,0819.5,5.00,000.00,028.3,025.7,000.0,036.9,029.9,11.6,0000.0,0003.86,0006.09,0003.60
2023-10-11 04:29:00,SystemResetWarning,0819.5,5.00,000.00,028.3,026.0,000.0,036.9,030.0,11.7,0000.0,0003.85,0005.93,0003.58
2023-10-11 04:30:00,SystemResetWarning,0819.5,5.01,000.00,028.3,026.2,000.0,036.9,030.0,11.7,0000.0,0003.83,0005.57,0003.55
2023-10-11 04:31:00,SystemResetWarning,0819.5,5.00,000.00,028.3,026.4,000.0,036.9,030.0,11.7,0000.0,0003.81,0005.46,0003.53
2023-10-11 04:32:00,SystemResetWarning,0819.5,5.00,000.00,028.3,026.6,000.0,036.8,030.0,11.7,0000.0,0003.77,0005.75,0003.51
2023-10-11 04:33:00,SystemResetWarning,0819.4,4.99,000.00,028.3,026.7,000.0,036.9,030.1,11.7,0000.0,0003.74,0006.39,0003.49
2023-10-11 04:34:00,SystemResetWarning,0819.5,5.00,000.00,028.3,026.8,000.0,036.9,030.1,11.7,0000.0,0003.72,0006.35,0003.47
2023-10-11 04:35:00,SystemResetWarning,0819.4,5.00,000.00,028.3,026.9,000.0,036.9,030.1,11.7,0000.0,0003.74,0006.52,0003.46
2023-10-11 04:36:00,SystemResetWarning,0819.4,5.00,000.00,028.4,027.0,000.0,036.9,030.1,11.7,0000.0,0003.76,0006.66,0003.44
2023-10-11 04:37:00,SystemResetWarning,0819.4,5.00,000.00,028.4,027.1,000.0,036.9,030.1,11.6,0000.0,0003.75,0006.51,0003.43
2023-10-11 04:38:00,SystemResetWarning,0819.4,5.00,000.00,028.4,027.1,000.0,036.9,030.2,11.6,0000.0,0003.72,0006.45,0003.41
2023-10-11 04:39:00,SystemResetWarning,0819.4,5.00,000.00,028.4,027.2,000.0,036.9,030.2,11.6,0000.0,0003.69,0006.42,0003.39
2023-10-11 04:40:00,SystemResetWarning,0819.4,4.99,000.00,028.5,027.2,000.0,036.9,030.2,11.6,0000.0,0003.67,0006.42,0003.36
2023-10-11 04:41:00,SystemResetWarning,0819.4,4.99,000.00,028.5,027.2,000.0,036.9,030.3,11.6,0000.0,0003.65,0006.52,0003.34
2023-10-11 04:42:00,SystemResetWarning,0819.4,5.00,000.00,028.5,027.3,000.0,037.0,030.2,11.6,0000.0,0003.62,0006.47,0003.32
2023-10-11 04:43:00,SystemResetWarning,0819.4,5.00,000.00,028.6,027.3,000.0,037.0,030.3,11.5,0000.0,0003.61,0006.32,0003.31
2023-10-11 04:44:00,SystemResetWarning,0819.4,4.99,000.00,028.6,027.3,000.0,037.0,030.3,11.5,0000.0,0003.60,0005.48,0003.30
2023-10-11 04:45:00,SystemResetWarning,0819.4,5.00,000.00,028.6,027.4,000.0,037.0,030.3,11.5,0000.0,0003.58,0005.38,0003.28
2023-10-11 04:46:00,SystemResetWarning,0819.4,5.01,000.00,028.6,027.4,000.0,037.0,030.3,11.5,0000.0,0003.55,0005.22,0003.26
2023-10-11 04:47:00,SystemResetWarning,0819.5,5.00,000.00,028.6,027.4,000.0,037.0,030.3,11.4,0000.0,0003.51,0005.05,0003.25
2023-10-11 04:48:00,SystemResetWarning,0819.4,5.00,000.00,028.7,027.4,000.0,037.1,030.4,11.4,0000.0,0003.49,0005.02,0003.25
2023-10-11 04:49:00,SystemResetWarning,0819.4,5.00,000.00,028.7,027.5,000.0,037.1,030.4,11.4,0000.0,0003.48,0005.04,0003.23
2023-10-11 04:50:00,SystemResetWarning,0819.5,4.99,000.00,028.7,027.0,000.0,037.1,030.4,11.4,0000.0,0003.47,0005.09,0003.22
2023-10-11 04:51:00,SystemResetWarning,0819.5,5.00,000.00,028.7,025.1,000.0,037.0,030.2,11.4,0000.0,0003.49,0006.11,0003.23
2023-10-11 04:52:00,SystemResetWarning,0819.3,5.02,000.00,028.6,024.4,000.0,036.9,030.1,11.4,0000.0,0003.50,0006.28,0003.23
2023-10-11 04:53:00,SystemResetWarning,0819.3,4.99,000.00,028.5,024.5,000.0,036.9,029.9,11.5,0000.0,0003.51,0006.37,0003.22
2023-10-11 04:54:00,SystemResetWarning,0819.2,5.00,000.00,028.4,024.8,000.0,036.9,029.8,11.6,0000.0,0003.50,0006.35,0003.22
2023-10-11 04:55:00,SystemResetWarning,0819.3,5.00,000.00,028.3,025.2,000.0,036.9,029.9,11.6,0000.0,0003.50,0006.25,0003.21
2023-10-11 04:56:00,SystemResetWarning,0819.2,5.00,000.00,028.3,025.5,000.0,036.9,029.9,11.6,0000.0,0003.49,0006.13,0003.21
2023-10-11 04:57:00,SystemResetWarning,0819.2,4.99,000.00,028.3,025.8,000.0,036.9,030.0,11.6,0000.0,0003.47,0006.13,0003.20
2023-10-11 04:58:00,SystemResetWarning,0819.3,5.00,000.00,028.3,026.1,000.0,036.9,030.0,11.6,0000.0,0003.46,0006.19,0003.20
2023-10-11 04:59:00,SystemResetWarning,0819.2,5.01,000.00,028.3,026.3,000.0,036.9,030.0,11.6,0000.0,0003.46,0006.32,0003.20
